Regional Weather Roundup
Issued by NWS Raleigh/Durham, NC

Home | Current Version | Previous Version | Text Only | Print | Product List | Glossary On
Versions: 1 2 3 4 5 6 7 8 9 10 11 12 13 14 15 16 17 18 19 20 21 22 23 24 25 26 27 28 29 30 31 32 33 34 35 36 37 38 39 40 41 42 43 44 45 46 47 48 49 50
000
ASUS42 KRAH 291210
RWRRAH
NORTH CAROLINA WEATHER ROUNDUP
NATIONAL WEATHER SERVICE RALEIGH NC
800 AM EDT SAT AUG 29 2015

NOTE: "FAIR" INDICATES FEW OR NO CLOUDS BELOW 12,000 FEET WITH NO
SIGNIFICANT WEATHER AND/OR OBSTRUCTIONS TO VISIBILITY.

NCZ001-053-055-056-065-067-291300-
WESTERN NORTH CAROLINA

CITY           SKY/WX    TMP DP  RH WIND       PRES   REMARKS
ASHEVILLE      PTSUNNY   58  56  93 CALM      30.30R
JEFFERSON      MOSUNNY   58  58 100 CALM      30.32R
MORGANTON      SUNNY     59  59 100 CALM      30.30R FOG
HICKORY        SUNNY     63  61  93 NW3       30.25R
RUTHERFORDTON  PTSUNNY   61  59  94 CALM      30.25S
MOUNT AIRY     PTSUNNY   64  60  88 CALM      30.27R
BOONE          MOSUNNY   53  53 100 CALM      30.34R FOG
$$

NCZ021-022-025-041-071-084-088-291300-
CENTRAL NORTH CAROLINA

CITY           SKY/WX    TMP DP  RH WIND       PRES   REMARKS
CHARLOTTE      PTSUNNY   66  61  84 N5        30.24R
GREENSBORO     PTSUNNY   66  61  84 CALM      30.25R
WINSTON-SALEM  SUNNY     64  60  87 CALM      30.26R
RALEIGH-DURHAM PTSUNNY   64  62  93 CALM      30.24R
FORT BRAGG     MOSUNNY   65  61  89 N3        30.21R
FAYETTEVILLE   MOSUNNY   67  63  87 N7        30.21R
BURLINGTON     MOSUNNY   62  60  93 CALM      30.25R
LAURINBURG     PTSUNNY   65  61  87 NE3       30.22R
$$

NCZ011-015-027-028-043-044-047-080-103-291300-
NORTHEASTERN NORTH CAROLINA

CITY           SKY/WX    TMP DP  RH WIND       PRES   REMARKS
ROCKY MT-WILSO SUNNY     66  63  90 CALM      30.23R
GREENVILLE     SUNNY     63  63 100 N3        30.22R
WASHINGTON     SUNNY     66  63  91 CALM      30.20S
ELIZABETH CITY SUNNY     72  66  81 N8        30.21R
MANTEO         MOSUNNY   75  66  72 NE13      30.19R
CAPE HATTERAS  PTSUNNY   74  72  93 NE9       30.15S
$$

NCZ078-087-090-091-093-098-101-291300-
SOUTHEASTERN NORTH CAROLINA

CITY           SKY/WX    TMP DP  RH WIND       PRES   REMARKS
LUMBERTON      PTSUNNY   66  63  90 N6        30.20R
GOLDSBORO      MOSUNNY   66  63  92 N3        30.20R
KINSTON        MOSUNNY   64  63  94 N5        30.22R
KENANSVILLE      N/A     64  64  97 CALM      30.22R
NEW BERN       SUNNY     70  65  84 N7        30.20R
CHERRY POINT   MOSUNNY   73  68  84 N10       30.18R
BEAUFORT       MOSUNNY   75  72  90 NE7       30.16R
JACKSONVILLE   SUNNY     69  65  86 N8        30.18R
WILMINGTON     SUNNY     68  65  90 N7        30.18R
$$




USA.gov is the U.S. government's official web portal to all federal, state and local government web resources and services.